TimeEDT,TemperatureF,Dew PointF,Humidity,Sea Level PressureIn,VisibilityMPH,Wind Direction,Wind SpeedMPH,Gust SpeedMPH,PrecipitationIn,Events,Conditions,WindDirDegrees,DateUTC
12:55 AM,66.0,45.0,47,29.82,10.0,North,4.6,-,N/A,,Clear,350,2013-06-30 04:55:00
1:55 AM,64.9,43.0,45,29.83,10.0,NNE,3.5,-,N/A,,Clear,30,2013-06-30 05:55:00
2:55 AM,64.0,41.0,43,29.84,10.0,NNE,4.6,-,N/A,,Clear,30,2013-06-30 06:55:00
3:55 AM,62.1,41.0,46,29.85,10.0,NNE,3.5,-,N/A,,Clear,20,2013-06-30 07:55:00
4:55 AM,60.1,41.0,49,29.87,10.0,NE,3.5,-,N/A,,Clear,50,2013-06-30 08:55:00
5:55 AM,60.1,39.0,46,29.88,10.0,NE,6.9,-,N/A,,Clear,40,2013-06-30 09:55:00
6:55 AM,61.0,37.9,42,29.91,10.0,Calm,Calm,-,N/A,,Clear,0,2013-06-30 10:55:00
7:55 AM,62.1,44.1,52,29.94,10.0,WNW,4.6,-,N/A,,Clear,290,2013-06-30 11:55:00
8:55 AM,66.0,37.0,34,29.94,10.0,Calm,Calm,-,N/A,,Clear,0,2013-06-30 12:55:00
9:55 AM,68.0,39.0,35,29.95,10.0,NW,4.6,-,N/A,,Clear,310,2013-06-30 13:55:00
10:55 AM,71.1,39.0,31,29.96,10.0,North,11.5,-,N/A,,Clear,360,2013-06-30 14:55:00
11:55 AM,72.0,46.0,40,29.96,10.0,NW,9.2,-,N/A,,Clear,310,2013-06-30 15:55:00
12:55 PM,73.0,46.9,39,29.96,10.0,West,10.4,-,N/A,,Clear,280,2013-06-30 16:55:00
1:55 PM,73.9,48.0,40,29.96,10.0,NW,12.7,-,N/A,,Clear,310,2013-06-30 17:55:00
2:55 PM,73.9,48.9,41,29.96,10.0,WNW,12.7,-,N/A,,Clear,300,2013-06-30 18:55:00
3:55 PM,72.0,46.0,40,29.97,10.0,NW,15.0,23.0,N/A,,Clear,310,2013-06-30 19:55:00
4:55 PM,72.0,43.0,35,29.98,10.0,NW,17.3,24.2,N/A,,Clear,320,2013-06-30 20:55:00
5:55 PM,71.1,43.0,36,29.99,10.0,NW,12.7,20.7,N/A,,Clear,310,2013-06-30 21:55:00
6:55 PM,70.0,41.0,35,29.99,10.0,NW,12.7,24.2,N/A,,Clear,320,2013-06-30 22:55:00
7:55 PM,68.0,43.0,40,30.01,10.0,NW,10.4,-,N/A,,Clear,310,2013-06-30 23:55:00
8:55 PM,64.0,44.1,48,30.01,10.0,WNW,9.2,-,N/A,,Clear,300,2013-07-01 00:55:00
9:55 PM,62.1,42.1,48,30.02,10.0,WNW,8.1,-,N/A,,Clear,300,2013-07-01 01:55:00
10:55 PM,59.0,42.1,53,30.04,10.0,West,5.8,-,N/A,,Clear,280,2013-07-01 02:55:00
11:55 PM,57.0,43.0,59,30.06,10.0,WSW,3.5,-,N/A,,Clear,240,2013-07-01 03:55:00